FW7263 Weather Reports


time (UTC)temp
C
wind
direction
speed
KPH
gust
KPH
rain 1hr
cm
rain 24hr
cm
rain mn
cm
humidity
%
barometer
mb
20260505035421 13 182 1.6 3.2 0.00 0.00 0.00 85 1011.0
20260505034918 13 186 0.0 3.2 0.00 0.00 0.00 84 1011.1
20260505034415 13 132 0.0 1.6 0.00 0.00 0.00 84 1011.0
20260505033912 13 194 0.0 3.2 0.00 0.00 0.00 83 1011.1
20260505033408 14 186 0.0 3.2 0.00 0.00 0.00 82 1011.0
20260505032907 13 186 1.6 3.2 0.00 0.00 0.00 82 1011.2
20260505032403 14 181 1.6 3.2 0.00 0.00 0.00 81 1011.4
20260505031900 14 182 1.6 1.6 0.00 0.00 0.00 81 1011.3
20260505031357 14 190 1.6 4.8 0.00 0.00 0.00 80 1011.4
20260505030854 14 183 0.0 0.0 0.00 0.00 0.00 79 1011.1
20260505030350 14 184 0.0 1.6 0.00 0.00 0.00 79 1011.4
20260505025845 14 188 0.0 1.6 0.00 0.00 0.00 79 1011.4
20260505025343 14 188 0.0 0.0 0.00 0.00 0.00 78 1011.6
20260505024842 14 187 0.0 0.0 0.00 0.00 0.00 78 1011.3
20260505024339 14 184 0.0 0.0 0.00 0.00 0.00 77 1011.2
20260505023836 14 183 1.6 3.2 0.00 0.00 0.00 77 1011.3
20260505023333 14 187 1.6 1.6 0.00 0.00 0.00 77 1011.4
20260505022830 15 192 0.0 0.0 0.00 0.00 0.00 76 1011.4
20260505022327 15 183 0.0 0.0 0.00 0.00 0.00 76 1011.3
20260505021824 15 182 0.0 1.6 0.00 0.00 0.00 75 1011.5
20260505021321 15 184 0.0 1.6 0.00 0.00 0.00 74 1011.5
20260505020816 15 173 0.0 4.8 0.00 0.00 0.00 75 1011.6
20260505015116 15 181 1.6 1.6 0.00 0.00 0.00 75 1011.3
20260505014613 15 181 1.6 1.6 0.00 0.00 0.00 75 1011.3
20260505014110 15 181 1.6 1.6 0.00 0.00 0.00 75 1011.3
20260505013607 15 183 0.0 1.6 0.00 0.00 0.00 75 1011.5
20260505013104 15 185 0.0 0.0 0.00 0.00 0.00 75 1011.4
20260505012602 15 185 0.0 0.0 0.00 0.00 0.00 75 1011.3
20260505012059 15 185 0.0 0.0 0.00 0.00 0.00 74 1011.3
20260505011554 15 185 0.0 0.0 0.00 0.00 0.00 73 1011.2
20260505011052 15 185 0.0 0.0 0.00 0.00 0.00 72 1011.2
20260505010547 15 185 0.0 1.6 0.00 0.00 0.00 71 1011.0
20260505010044 15 186 0.0 1.6 0.00 0.00 0.00 71 1010.9
20260505005540 16 185 0.0 0.0 0.00 0.00 0.00 70 1010.9
20260505005038 16 188 0.0 1.6 0.00 0.00 0.00 70 1011.0
20260505004535 16 184 0.0 3.2 0.00 0.00 0.00 70 1011.0
20260505004032 16 150 3.2 4.8 0.00 0.00 0.00 70 1011.0
20260505003529 16 177 1.6 3.2 0.00 0.00 0.00 70 1011.1
20260505003026 16 169 0.0 3.2 0.00 0.00 0.00 71 1011.0
20260505002527 16 180 0.0 3.2 0.00 0.00 0.00 70 1010.9
20260505002026 16 185 0.0 0.0 0.00 0.00 0.00 71 1011.1
20260505001523 16 183 0.0 1.6 0.00 0.00 0.00 71 1010.7
20260505001020 16 181 0.0 3.2 0.00 0.00 0.00 70 1010.7
20260505000517 16 180 0.0 1.6 0.00 0.00 0.00 70 1010.6
20260505000015 17 185 3.2 3.2 0.00 0.00 0.00 69 1010.7
20260504235511 17 178 1.6 1.6 0.00 0.00 0.00 68 1010.8
20260504235008 17 183 0.0 3.2 0.00 0.00 0.00 67 1010.6
20260504234505 17 183 0.0 3.2 0.00 0.00 0.00 67 1010.6
20260504234002 17 183 0.0 3.2 0.00 0.00 0.00 67 1010.6
20260504233457 17 177 3.2 4.8 0.00 0.00 0.00 66 1010.4
20260504232954 17 169 3.2 4.8 0.00 0.00 0.00 66 1010.4
20260504232451 18 175 3.2 3.2 0.00 0.00 0.00 65 1010.5
20260504231949 18 182 1.6 1.6 0.00 0.00 0.00 63 1010.5
20260504231445 18 165 1.6 8.0 0.00 0.00 0.00 61 1010.4
20260504230941 18 87 3.2 4.8 0.00 0.00 0.00 60 1010.3
20260504230438 18 178 1.6 3.2 0.00 0.00 0.00 58 1010.3
20260504225937 19 186 1.6 3.2 0.00 0.00 0.00 58 1010.4
20260504225433 19 174 3.2 4.8 0.00 0.00 0.00 57 1010.4
20260504224931 19 178 3.2 4.8 0.00 0.00 0.00 57 1010.5
20260504224427 19 177 3.2 3.2 0.00 0.00 0.00 57 1010.1
20260504223924 20 170 0.0 1.6 0.00 0.00 0.00 55 1010.3
20260504223420 20 208 1.6 3.2 0.00 0.00 0.00 54 1010.2
20260504222916 20 166 1.6 3.2 0.00 0.00 0.00 53 1010.4
20260504222414 20 164 3.2 4.8 0.00 0.00 0.00 50 1010.3
20260504221912 20 164 3.2 4.8 0.00 0.00 0.00 50 1010.2
20260504221408 20 176 6.4 8.0 0.00 0.00 0.00 50 1010.4
20260504220905 20 117 4.8 8.0 0.00 0.00 0.00 50 1010.2
20260504220402 20 186 3.2 8.0 0.00 0.00 0.00 50 1010.2
20260504215859 21 157 9.7 11.3 0.00 0.00 0.00 49 1010.2
20260504215355 20 184 1.6 1.6 0.00 0.00 0.00 50 1010.3
20260504214851 21 192 1.6 9.7 0.00 0.00 0.00 49 1010.2
20260504214349 21 174 4.8 4.8 0.00 0.00 0.00 47 1010.2
20260504213845 21 178 4.8 4.8 0.00 0.00 0.00 46 1010.2
20260504213341 21 184 6.4 9.7 0.00 0.00 0.00 46 1010.0
20260504212839 21 167 4.8 8.0 0.00 0.00 0.00 46 1010.1
20260504212334 21 196 1.6 8.0 0.00 0.00 0.00 47 1010.2
20260504211833 21 167 4.8 8.0 0.00 0.00 0.00 46 1010.2
20260504211328 22 83 4.8 9.7 0.00 0.00 0.00 46 1009.8
20260504210826 22 174 3.2 4.8 0.00 0.00 0.00 45 1010.1
20260504210322 23 105 9.7 11.3 0.00 0.00 0.00 44 1010.2
20260504205820 23 202 3.2 9.7 0.00 0.00 0.00 35 1010.1
20260504205317 23 166 4.8 8.0 0.00 0.00 0.00 42 1010.1
20260504204815 23 191 3.2 3.2 0.00 0.00 0.00 43 1010.2
20260504204314 23 228 8.0 14.5 0.00 0.00 0.00 33 1010.3
20260504203813 23 231 9.7 12.9 0.00 0.00 0.00 32 1010.1
20260504203309 23 173 6.4 8.0 0.00 0.00 0.00 34 1010.3
20260504202804 23 199 9.7 11.3 0.00 0.00 0.00 32 1010.2
20260504202304 23 225 3.2 9.7 0.00 0.00 0.00 34 1010.2
20260504201759 23 195 4.8 8.0 0.00 0.00 0.00 34 1010.2
20260504201256 23 95 4.8 8.0 0.00 0.00 0.00 34 1010.1
20260504200754 23 159 4.8 4.8 0.00 0.00 0.00 33 1010.5
20260504200249 23 291 4.8 9.7 0.00 0.00 0.00 34 1010.3
20260504195746 23 230 4.8 4.8 0.00 0.00 0.00 36 1010.5
20260504195242 25 197 4.8 8.0 0.00 0.00 0.00 35 1010.6
20260504194739 25 197 4.8 8.0 0.00 0.00 0.00 35 1010.6
20260504194235 25 225 4.8 8.0 0.00 0.00 0.00 34 1010.6
20260504193731 24 180 4.8 8.0 0.00 0.00 0.00 33 1010.4
20260504193229 24 193 3.2 4.8 0.00 0.00 0.00 35 1010.4
20260504192727 23 202 3.2 3.2 0.00 0.00 0.00 36 1010.7
20260504192225 24 190 1.6 3.2 0.00 0.00 0.00 35 1010.9
20260504191724 23 251 12.9 16.1 0.00 0.00 0.00 35 1010.9
20260504191220 23 195 1.6 4.8 0.00 0.00 0.00 36 1010.6
20260504190646 23 194 1.6 4.8 0.00 0.00 0.00 37 1011.0
20260504190143 23 194 1.6 4.8 0.00 0.00 0.00 37 1011.0
20260504185639 23 198 3.2 4.8 0.00 0.00 0.00 35 1011.3
20260504185136 23 167 3.2 3.2 0.00 0.00 0.00 34 1011.1
20260504184631 24 194 1.6 4.8 0.00 0.00 0.00 38 1011.2
20260504184126 23 205 4.8 4.8 0.00 0.00 0.00 37 1011.2
20260504180351 23 199 6.4 8.0 0.00 0.00 0.00 34 1012.0
20260504175849 23 199 6.4 8.0 0.00 0.00 0.00 34 1012.0
20260504175345 23 199 6.4 8.0 0.00 0.00 0.00 34 1012.0
20260504174843 22 173 0.0 3.2 0.00 0.00 0.00 34 1012.0
20260504174341 23 218 4.8 8.0 0.00 0.00 0.00 36 1012.0
20260504173837 22 232 3.2 4.8 0.00 0.00 0.00 36 1011.8
20260504173334 22 198 1.6 1.6 0.00 0.00 0.00 36 1012.2
20260504172831 22 135 3.2 4.8 0.00 0.00 0.00 36 1012.2
20260504172328 22 190 4.8 8.0 0.00 0.00 0.00 37 1012.4
20260504171824 22 245 8.0 11.3 0.00 0.00 0.00 38 1012.4
20260504171321 22 167 4.8 4.8 0.00 0.00 0.00 36 1012.4
20260504170818 22 208 3.2 9.7 0.00 0.00 0.00 37 1012.4
20260504170315 23 180 3.2 8.0 0.00 0.00 0.00 37 1012.5
20260504160233 21 209 1.6 4.8 0.00 0.00 0.00 42 1013.2
20260504150659 20 178 1.6 4.8 0.00 0.00 0.00 50 1013.7
20260504150155 19 187 1.6 1.6 0.00 0.00 0.00 52 1013.8
20260504141124 18 207 3.2 9.7 0.00 0.00 0.00 53 1014.2
20260504140621 18 195 1.6 4.8 0.00 0.00 0.00 56 1014.1
20260504140117 17 199 4.8 8.0 0.00 0.00 0.00 53 1014.1
20260504130545 17 68 4.8 9.7 0.00 0.00 0.00 58 1014.7
20260504110433 6 196 0.0 0.0 0.00 0.00 0.00 91 1015.7
20260504100349 3 199 0.0 0.0 0.00 0.00 0.00 93 1015.7
20260504081742 5 198 0.0 0.0 0.00 0.00 0.00 88 1015.6
20260504081239 5 198 0.0 0.0 0.00 0.00 0.00 88 1015.5
20260504080735 5 198 0.0 0.0 0.00 0.00 0.00 88 1015.4
20260504080232 5 198 0.0 0.0 0.00 0.00 0.00 88 1015.2
20260504070200 5 192 0.0 0.0 0.00 0.00 0.00 87 1015.1
20260504060120 5 192 0.0 0.0 0.00 0.00 0.00 82 1014.6
20260504050548 5 191 0.0 0.0 0.00 0.00 0.00 79 1014.8
20260504045542 5 191 0.0 0.0 0.00 0.00 0.00 79 1014.8
20260504045037 5 191 0.0 0.0 0.00 0.00 0.00 79 1014.6
20260504044535 5 191 0.0 0.0 0.00 0.00 0.00 79 1014.4
20260504044032 5 191 0.0 0.0 0.00 0.00 0.00 76 1014.7
20260504043529 5 191 0.0 0.0 0.00 0.00 0.00 76 1014.8
20260504043026 5 191 0.0 0.0 0.00 0.00 0.00 76 1014.6
20260504042523 5 191 0.0 0.0 0.00 0.00 0.00 76 1014.7
20260504042020 5 191 0.0 0.0 0.00 0.00 0.00 76 1014.7
20260504041516 5 191 0.0 0.0 0.00 0.00 0.00 76 1014.5
20260504041012 5 191 0.0 0.0 0.00 0.00 0.00 75 1014.5
20260504040510 5 191 0.0 0.0 0.00 0.00 0.00 75 1014.7
20260504040006 5 191 0.0 1.6 0.00 0.00 0.00 75 1014.5